[[{"header":{"parameterUnit":"m.s-1","parameterCategory":1,"la1":30.2991,"la2":30.254,"lo1":-89.0895,"lo2":-89.0444,"dy":0.0017,"dx":0.0017,"nx":28,"ny":28,"refTime":"2024-05-23T09:00:00:Z","depth":0,"parameterNumber":2,"parameterNumberName":"U-component_of_WINDS"},"data":[0,0,0,0,0,0,0,0,0,0,0,0,0,0,0,0,0,0,0,0,0,0,0,0,0,0,0,0,0,0,0,0,0,0,0,0,0,0,0,0,0,0,0,0,0,0,0,0,0,0,0,0,0,0,0,0,0,0,-1.8636,-1.8637,0,-1.8736,-1.8737,-1.8738,-1.8752,-1.8751,-1.875,-1.8749,-1.8853,-1.8856,-1.886,0,0,0,0,0,0,0,0,0,0,0,0,0,-1.846,-1.8463,-1.8636,-1.8637,-1.8639,-1.8736,-1.8737,-1.8738,-1.8752,-1.8751,-1.875,-1.8748,-1.8852,-1.8856,-1.886,0,0,0,0,0,0,0,0,0,0,0,0,0,-1.8546,-1.8464,-1.8636,-1.8657,-1.866,-1.8735,-1.8737,-1.8739,-1.8752,-1.8751,-1.8749,-1.8748,-1.885,-1.8856,-1.8861,-1.8923,0,0,-1.8878,-1.888,0,0,0,0,0,0,0,0,-1.8541,-1.8552,-1.8653,-1.8656,-1.8659,-1.873,-1.8713,-1.8801,-1.8752,-1.8717,-1.8749,-1.8747,-1.8813,-1.8822,-1.8843,-1.8928,-1.8932,-1.8878,-1.8881,-1.8884,-1.8885,0,0,0,0,0,0,0,-1.8535,-1.8548,-1.8676,-1.8654,-1.8658,-1.8662,-1.8673,-1.873,-1.8772,-1.872,-1.8721,-1.8733,-1.8815,-1.8838,-1.8846,-1.8934,-1.8878,-1.8883,-1.8886,-1.8888,-1.9074,-1.9076,0,0,0,0,0,0,-1.8525,-1.8543,-1.8672,-1.8679,-1.8595,-1.8667,-1.8678,-1.8709,-1.8771,-1.8779,-1.8734,-1.8733,-1.8829,-1.884,-1.885,-1.8926,-1.8884,-1.8889,-1.8892,-1.9073,-1.9075,-1.9077,0,0,0,0,0,0,-1.8521,-1.8536,-1.8668,-1.8611,-1.8628,-1.8671,-1.8705,-1.8711,-1.8735,-1.8782,-1.879,-1.875,-1.8829,-1.8842,-1.8905,-1.893,-1.8891,-1.8896,-1.9071,-1.9073,-1.9076,-1.908,0,0,0,0,0,0,-1.8516,-1.8535,-1.8558,-1.8612,-1.8631,-1.8721,-1.8706,-1.8714,-1.8744,-1.8744,-1.8799,-1.8807,-1.8829,-1.8896,-1.891,-1.8937,-1.8901,-1.9069,-1.9072,-1.9075,-1.9078,-1.9082,-1.9086,0,0,0,0,0,-1.851,-1.8556,-1.8559,-1.8575,-1.8661,-1.8722,-1.8734,-1.8757,-1.8746,-1.877,-1.88,-1.8805,-1.8925,-1.8903,-1.8918,-1.8947,-1.9067,-1.9071,-1.9075,-1.9076,-1.9081,-1.9086,0,0,0,0,0,0,-1.8505,-1.8563,-1.8568,-1.8632,-1.8672,-1.8724,-1.8756,-1.8763,-1.8807,-1.8805,-1.8834,-1.8846,-1.8907,-1.8934,-1.8907,-1.9011,-1.8995,-1.9002,-1.8991,-1.8997,-1.9001,-1.8993,-1.8905,0,0,0,0,0,-1.8511,-1.8555,-1.8604,-1.8657,-1.8676,-1.8713,-1.874,-1.8755,-1.8798,-1.8815,-1.885,-1.8891,-1.8939,-1.8969,-1.9015,-1.9082,-1.9094,-1.911,-1.9114,-1.9117,-1.9123,-1.916,-1.9167,-1.9089,-1.9089,-1.9089,0,0,-1.8526,-1.8563,-1.8589,-1.8657,-1.8689,-1.8735,-1.8727,-1.8775,-1.8809,-1.8822,-1.8883,-1.891,-1.8959,-1.9024,-1.9054,-1.9048,-1.9147,-1.9122,-1.9124,-1.9128,-1.9165,-1.9172,-1.9179,-1.9091,-1.9091,-1.9091,0,0,-1.8574,-1.8607,-1.8654,-1.8686,-1.8736,-1.8759,-1.8771,-1.8822,-1.884,-1.8902,-1.8913,-1.8954,-1.9035,-1.9069,-1.9097,-1.9159,-1.9165,-1.9173,-1.9195,-1.9231,-1.9238,-1.9243,-1.9265,-1.9273,-1.9179,-1.9179,-1.9179,0,-1.8585,-1.8653,-1.8677,-1.8725,-1.8755,-1.8768,-1.8817,-1.8848,-1.891,-1.893,-1.8922,-1.9024,-1.9058,-1.9131,-1.9146,-1.9168,-1.9182,-1.9167,-1.9235,-1.9241,-1.9246,-1.9267,-1.9276,-1.918,-1.918,-1.918,-1.9179,0,-1.8665,-1.8712,-1.8744,-1.8803,-1.8837,-1.8885,-1.8916,-1.8948,-1.896,-1.8985,-1.9048,-1.9089,-1.9143,-1.9162,-1.9175,-1.9237,-1.9231,-1.9229,-1.9214,-1.9254,-1.9274,-1.9283,-1.9181,-1.918,-1.918,-1.918,0,0,-1.8713,-1.8784,-1.8795,-1.8822,-1.8878,-1.8915,-1.8964,-1.9017,-1.9043,-1.9086,-1.9128,-1.9196,-1.9194,-1.9225,-1.9242,-1.9274,-1.932,-1.9268,-1.9269,-1.9276,-1.9391,-1.9393,-1.9402,-1.9325,-1.9326,-1.9328,-1.9387,0,-1.8767,-1.8854,-1.8877,-1.8951,-1.8995,-1.9008,-1.9051,-1.909,-1.9115,-1.9156,-1.9184,-1.9232,-1.9226,-1.9245,-1.9277,-1.9308,-1.9344,-1.9304,-1.9364,-1.9366,-1.9351,-1.9412,-1.9414,-1.9468,-1.9395,-1.9397,-1.9398,0,-1.8843,-1.8886,-1.8963,-1.9013,-1.9032,-1.907,-1.912,-1.916,-1.9205,-1.9221,-1.9256,-1.927,-1.9322,-1.9305,-1.9378,-1.935,-1.9377,-1.9396,-1.9398,-1.9404,-1.9384,-1.942,-1.9486,-1.9493,-1.9411,-1.941,-1.9409,0,-1.8869,-1.8947,-1.9004,-1.9026,-1.9086,-1.9112,-1.9138,-1.9181,-1.9212,-1.9256,-1.9276,-1.9326,-1.9354,-1.9393,-1.942,-1.9405,-1.9491,-1.9475,-1.9505,-1.9505,-1.9522,-1.9521,-1.9593,-1.954,-1.954,-1.954,-1.954,0,-1.8928,-1.8975,-1.9016,-1.9051,-1.9104,-1.9131,-1.9183,-1.921,-1.9249,-1.9289,-1.9305,-1.9343,-1.9377,-1.942,-1.9442,-1.9499,-1.9511,-1.9526,-1.9531,-1.9524,-1.9522,-1.9541,-1.9538,-1.9542,-1.9542,-1.9541,-1.9541,0,-1.8966,-1.8996,-1.9058,-1.9109,-1.9123,-1.916,-1.9204,-1.9239,-1.9264,-1.9316,-1.9329,-1.937,-1.9421,-1.9452,-1.9518,-1.9532,-1.9595,-1.9599,-1.9579,-1.9582,-1.961,-1.9606,-1.9696,-1.971,-1.9648,-1.9649,-1.9649,0,-1.9001,-1.9038,-1.9092,-1.912,-1.9146,-1.9191,-1.9222,-1.925,-1.9281,-1.9335,-1.9364,-1.9416,-1.9459,-1.954,-1.9576,-1.9626,-1.9631,-1.9659,-1.9639,-1.9631,-1.9631,-1.9629,-1.9632,-1.9663,-1.9663,-1.9664,-1.9664,0,-1.906,-1.9073,-1.9116,-1.9165,-1.92,-1.924,-1.928,-1.9302,-1.9337,-1.9372,-1.9424,-1.9458,-1.9524,-1.9576,-1.9629,-1.9657,-1.9667,-1.967,-1.968,-1.9673,-1.966,-1.9667,-1.9588,-1.9668,-1.9667,-1.9667,-1.9667,-1.9667,-1.9098,-1.9131,-1.9174,-1.9222,-1.9254,-1.9291,-1.9326,-1.9355,-1.9399,-1.9454,-1.9469,-1.9524,-1.9568,-1.964,-1.967,-1.9714,-1.9709,-1.9723,-1.9727,-1.973,-1.973,-1.9653,-1.9723,-1.9723,-1.9723,-1.9723,-1.9723,0,-1.9158,-1.9186,-1.9229,-1.9284,-1.9321,-1.9326,-1.9371,-1.9402,-1.945,-1.949,-1.9532,-1.9592,-1.9642,-1.9682,-1.9734,-1.9761,-1.9767,-1.9774,-1.9772,-1.9778,-1.9731,-1.9717,-1.9768,-1.9768,-1.9768,-1.9768,-1.9768,-1.9768,-1.9193,-1.9248,-1.9266,-1.9338,-1.9367,-1.942,-1.9444,-1.9479,-1.9511,-1.9577,-1.9618,-1.9643,-1.9684,-1.9739,-1.9785,-1.9796,-1.9814,-1.982,-1.9831,-1.9786,-1.9781,-1.9777,-1.9764,-1.9824,-1.9824,-1.9875,-1.9875,-1.9876]},{"header":{"parameterUnit":"m.s-1","parameterCategory":1,"la1":30.2991,"la2":30.254,"lo1":-89.0895,"lo2":-89.0444,"dy":0.0017,"dx":0.0017,"nx":28,"ny":28,"refTime":"2024-05-23T09:00:00:Z","depth":0,"parameterNumber":3,"parameterNumberName":"V-component_of_WINDS"},"data":[0,0,0,0,0,0,0,0,0,0,0,0,0,0,0,0,0,0,0,0,0,0,0,0,0,0,0,0,0,0,0,0,0,0,0,0,0,0,0,0,0,0,0,0,0,0,0,0,0,0,0,0,0,0,0,0,0,0,2.5629,2.5629,0,2.5638,2.5638,2.5638,2.5571,2.5569,2.5567,2.5566,2.5574,2.5576,2.5577,0,0,0,0,0,0,0,0,0,0,0,0,0,2.5552,2.5554,2.5629,2.5629,2.5629,2.5638,2.5638,2.5638,2.5571,2.5569,2.5567,2.5565,2.5573,2.5575,2.5578,0,0,0,0,0,0,0,0,0,0,0,0,0,2.5576,2.5554,2.5629,2.5597,2.5594,2.5638,2.5638,2.5638,2.5572,2.5569,2.5566,2.5564,2.5572,2.5575,2.5578,2.5652,0,0,2.5587,2.5588,0,0,0,0,0,0,0,0,2.5574,2.5578,2.5601,2.5599,2.5596,2.5601,2.5614,2.5643,2.5573,2.558,2.5566,2.5562,2.5585,2.5587,2.5594,2.5653,2.5653,2.5587,2.5589,2.559,2.5591,0,0,0,0,0,0,0,2.5573,2.5578,2.5632,2.5602,2.5599,2.5581,2.5582,2.5619,2.5598,2.5579,2.5575,2.5577,2.5583,2.5592,2.5594,2.5653,2.5587,2.559,2.5592,2.5593,2.5772,2.5774,0,0,0,0,0,0,2.5576,2.5577,2.5632,2.5633,2.5578,2.5585,2.5585,2.5602,2.5598,2.5594,2.5579,2.5574,2.5588,2.5591,2.5594,2.5679,2.559,2.5593,2.5595,2.5769,2.5772,2.5775,0,0,0,0,0,0,2.5574,2.5581,2.5632,2.5603,2.5609,2.559,2.5609,2.5604,2.5612,2.5597,2.5593,2.5592,2.5586,2.559,2.5638,2.5679,2.5594,2.5597,2.5765,2.577,2.5774,2.5851,0,0,0,0,0,0,2.5572,2.5581,2.561,2.5605,2.561,2.5676,2.5611,2.5606,2.5618,2.5611,2.5608,2.5605,2.5584,2.5634,2.5641,2.5681,2.5599,2.5761,2.5767,2.5772,2.5845,2.5858,2.5869,0,0,0,0,0,2.557,2.5631,2.5611,2.5618,2.5646,2.5679,2.5682,2.5657,2.5621,2.5649,2.564,2.5605,2.5674,2.564,2.5647,2.5688,2.5759,2.5765,2.5772,2.584,2.5855,2.5869,0,0,0,0,0,0,2.5641,2.563,2.5608,2.567,2.5676,2.5667,2.5702,2.5674,2.569,2.5683,2.565,2.565,2.5704,2.5701,2.5663,2.576,2.571,2.5718,2.5759,2.5774,2.5785,2.5784,2.5602,0,0,0,0,0,2.5664,2.5692,2.5681,2.5737,2.5741,2.5721,2.5735,2.5715,2.5719,2.5721,2.5715,2.5721,2.5743,2.5759,2.5779,2.5845,2.5843,2.5877,2.5889,2.5899,2.5906,2.5939,2.5954,2.5798,2.5797,2.5797,0,0,2.5711,2.5709,2.5729,2.5751,2.5753,2.5782,2.5724,2.5757,2.5778,2.5726,2.5771,2.5767,2.5771,2.5828,2.5853,2.5828,2.5949,2.5908,2.5916,2.5917,2.5948,2.5963,2.5976,2.5802,2.5801,2.5801,0,0,2.5812,2.5814,2.586,2.5863,2.5868,2.5854,2.5866,2.5862,2.5857,2.5901,2.5863,2.5887,2.5927,2.5931,2.5938,2.6041,2.6009,2.6049,2.611,2.6143,2.6155,2.6166,2.6201,2.6214,2.6056,2.6056,2.6057,0,2.587,2.5913,2.5886,2.5922,2.5932,2.5888,2.5933,2.5938,2.5949,2.5956,2.5928,2.5976,2.5976,2.6033,2.6058,2.6066,2.6077,2.6048,2.6156,2.6166,2.6176,2.6208,2.6222,2.6061,2.606,2.606,2.606,0,2.5983,2.6014,2.605,2.6061,2.6076,2.6117,2.6095,2.6113,2.6092,2.6082,2.6127,2.6125,2.6143,2.6156,2.6136,2.621,2.6193,2.6162,2.611,2.6196,2.6226,2.6238,2.6067,2.6066,2.6064,2.6063,0,0,2.6128,2.6124,2.6138,2.6141,2.6143,2.6166,2.6204,2.6222,2.6237,2.6247,2.6277,2.6312,2.6282,2.629,2.6271,2.63,2.6379,2.6264,2.6263,2.6283,2.6458,2.648,2.6496,2.6359,2.6362,2.6363,2.6457,0,2.6224,2.6289,2.6266,2.6332,2.6359,2.6317,2.635,2.6355,2.6346,2.6367,2.6357,2.6382,2.6342,2.6346,2.6373,2.6364,2.6413,2.6357,2.6385,2.6387,2.6383,2.6511,2.6536,2.6624,2.6469,2.6471,2.6472,0,2.6345,2.6359,2.6428,2.6424,2.6434,2.6465,2.6479,2.65,2.6504,2.6495,2.6505,2.6479,2.6515,2.6467,2.6515,2.6478,2.6488,2.6485,2.6488,2.6488,2.6433,2.6512,2.6652,2.6664,2.6491,2.6489,2.6488,0,2.6441,2.6477,2.6522,2.6527,2.6525,2.6547,2.6546,2.6548,2.656,2.6572,2.658,2.6597,2.6605,2.6619,2.6598,2.6564,2.6649,2.6599,2.6642,2.6642,2.6659,2.6658,2.68,2.6671,2.667,2.667,2.667,0,2.6549,2.6592,2.6565,2.6592,2.6639,2.6613,2.666,2.6655,2.6656,2.6682,2.6647,2.6672,2.6644,2.6665,2.6649,2.6691,2.6696,2.6689,2.6684,2.6691,2.6691,2.6696,2.6688,2.6674,2.6673,2.6672,2.6672,0,2.6663,2.6646,2.6692,2.6687,2.6686,2.6721,2.6715,2.674,2.6729,2.6762,2.6768,2.6751,2.6775,2.6756,2.6779,2.6768,2.6823,2.681,2.6821,2.6817,2.686,2.6856,2.7008,2.7025,2.6887,2.6888,2.689,0,2.6732,2.6764,2.6762,2.6776,2.6778,2.6803,2.6815,2.679,2.6804,2.6811,2.6835,2.6856,2.687,2.691,2.69,2.6917,2.6903,2.6955,2.6905,2.6911,2.6901,2.6899,2.6901,2.6965,2.6966,2.6968,2.6969,0,2.6856,2.6846,2.6865,2.6881,2.6897,2.6908,2.6917,2.6931,2.6906,2.6923,2.6947,2.6959,2.6982,2.7003,2.7017,2.7016,2.6988,2.6985,2.6995,2.7001,2.7006,2.7002,2.6846,2.6981,2.698,2.6979,2.6978,2.6978,2.6948,2.6974,2.6976,2.6998,2.7002,2.7011,2.7033,2.7026,2.7045,2.7062,2.7047,2.7075,2.7078,2.7094,2.7097,2.7118,2.7096,2.7112,2.7115,2.7119,2.7124,2.7005,2.7121,2.712,2.712,2.712,2.7119,0,2.7068,2.7067,2.7088,2.7101,2.7118,2.7091,2.71,2.7115,2.7141,2.7146,2.7162,2.7189,2.7208,2.72,2.7217,2.7236,2.7223,2.7241,2.7238,2.7238,2.7144,2.7132,2.7251,2.7251,2.7251,2.7251,2.7251,2.7251,2.7132,2.7174,2.7165,2.7208,2.7207,2.7235,2.7241,2.7249,2.7253,2.7284,2.7301,2.7295,2.7295,2.7312,2.7328,2.7325,2.7332,2.7354,2.7346,2.7258,2.7245,2.7232,2.7221,2.7357,2.7357,2.7438,2.7439,2.744]}]]